Вернуться в каталог

CZ-4C DEB

АктивенPO
NORAD 38297·DEBRIS·🇨🇳 China

Запущен Nov 4, 2010 с Taiyuan Satellite Launch Center

Loading…

Ближайшие Пролёты (ближайшие 24 часа)

TLE

СвежийSource: Space-Track

Эпоха: Sep 13, 2026, 12:51 UTC

1 38297U 10059G   26256.53597992  .00000240  00000-0  22365-3 0  9991
2 38297  98.7454 153.4422 0236708 158.0810 203.0675 13.78382472790406

Отслеживайте CZ-4C DEB в реальном времени с AllMySat

Download on the App Store